Ten-Koh (43677 NORAD) Tracking and Keplerian Element Data

This shows tracking and keplerian element data for the satellite.

Feedback or suggestion? Click here.




ElementValue
Catalog43677
NameTen-Koh
Epoch Orbit3062
Epoch Day142.89758475
Epoch Year2019
RAAN256.8073
Inclination97.8484
Eccentricity0.0016354
Argument of Perigee16.0994
Mean Anonmoly344.074
Mean Motion14.90160925
Decay Rate1.1E-07
L11 43677U 18084G 19142.89758475 .00000011 00000-0 69495-5 0 9998
L22 43677 97.8484 256.8073 0016354 16.0994 344.0740 14.90160925 30628

Live tracking and technical data element details for Ten-Koh (NORAD 43677). Ten-Koh can be tracked NOW for your location showing map with azimuth and elevation plus other details from your city location.

Track the satellite on the map from your city or location and see movement details for azimuth, elevation, latitude, longitude, range, height, and movement on the map or in text.







IsCatalogInMostPopularTable: catalog: 43677, numindb: 132
Update: records affected: 1



GetName: 43677 Ten-Koh

Hit Count: updated at: Fri, 24 May 2019 20:55:25 GMT